Powrót do katalogu

SL-8 R/B

AktywnyLEO
NORAD 6320·ROCKET BODY·🇷🇺 Russia

Wystrzelony Dec 21, 1972 z Plesetsk Cosmodrome

Loading…

Następne Przeloty (najbliższe 24 godziny)

TLE

ŚwieżeSource: Space-Track

Epoka: Sep 14, 2026, 09:55 UTC

1 06320U 72102B   26257.41384970  .00000060  00000-0  35559-3 0  9997
2 06320  74.0129  63.7632 0024562 217.9828 165.0240 12.77036864504594

Śledź SL-8 R/B w czasie rzeczywistym z AllMySat

Download on the App Store